1499968800.02,14906,21.06,73868.5,-2.05,-40.47,-40.91,0,*56
1499968801.26,14907,21.06,73870.5,-2.07,-40.65,-40.91,0,*55
1499968802.49,14908,21.06,73870.0,-2.07,-40.65,-40.91,0,*5A
1499968803.73,14909,21.06,73868.5,-2.07,-40.73,-40.91,0,*5C
1499968804.96,14910,21.06,73868.0,-2.07,-40.53,-40.91,0,*56
1499968806.22,14911,21.13,73874.8,-2.07,-40.65,-40.97,0,*54
1499968807.45,14912,21.06,73868.8,-2.07,-40.65,-40.91,0,*51
1499968808.69,14913,21.06,73868.3,-2.07,-40.53,-40.91,0,*55
1499968809.89,14914,21.06,73868.5,-2.09,-40.73,-40.91,0,*5E
1499968811.13,14915,21.06,73872.0,-2.09,-40.73,-40.97,0,*59
1499968812.39,14916,21.13,73874.8,-2.09,-40.59,-40.97,0,*52
1499968813.62,14917,21.06,73870.0,-2.09,-40.73,-40.97,0,*5B
1499968814.86,14918,21.06,73872.0,-2.07,-40.65,-40.91,0,*5B
1499968816.09,14919,21.06,73870.3,-2.07,-40.53,-40.91,0,*5F
1499968817.35,14920,21.13,73874.3,-2.09,-40.59,-40.97,0,*57
1499968818.61,14921,21.06,73872.8,-2.09,-40.59,-40.97,0,*56
1499968819.84,14922,21.06,73874.3,-2.07,-40.65,-40.91,0,*52
1499968821.08,14923,21.06,73872.8,-2.07,-40.65,-40.91,0,*53
1499968822.34,14924,21.06,73872.3,-2.07,-40.65,-40.97,0,*52
1499968823.6,14925,21.06,73868.5,-2.07,-40.09,-40.47,0,*54
1499968824.83,14926,21.06,73870.0,-2.07,-40.35,-40.65,0,*58
1499968826.09,14927,21.06,73872.5,-2.09,-40.59,-40.97,0,*50
1499968827.29,14928,21.06,73870.8,-2.09,-40.53,-40.91,0,*53
1499968828.53,14929,21.06,73868.5,-2.07,-40.47,-40.91,0,*59
1499968829.77,14930,21.06,73868.0,-2.07,-40.47,-40.91,0,*51
1499968831.0,14931,21.13,73876.8,-2.07,-40.53,-40.73,0,*59
1499968832.26,14932,21.06,73874.5,-2.07,-40.53,-40.97,0,*50
1499968833.52,14933,21.06,73876.0,-2.07,-40.73,-40.97,0,*53
1499968834.76,14934,21.13,73878.0,-2.07,-40.65,-40.91,0,*55
1499968835.99,14935,21.06,73872.0,-2.07,-40.35,-40.65,0,*5A
1499968837.22,14936,21.06,73872.0,-2.07,-40.65,-40.91,0,*57
1499968838.45,14937,21.06,73872.8,-2.09,-40.79,-41.03,0,*5F
1499968839.68,14938,21.06,73874.5,-2.09,-40.79,-41.03,0,*50
1499968840.91,14939,21.06,73872.5,-2.09,-40.79,-41.03,0,*51
1499968842.12,14940,21.06,73874.8,-2.09,-40.73,-41.03,0,*55
1499968843.38,14941,21.06,73874.8,-2.07,-40.65,-40.97,0,*51
1499968844.61,14942,21.06,73874.0,-2.11,-40.73,-41.03,0,*5E
1499968845.87,14943,21.06,73874.8,-2.11,-40.79,-41.03,0,*55
1499968847.07,14944,21.06,73872.8,-2.09,-40.73,-41.17,0,*54
1499968848.28,14945,21.06,73872.3,-2.09,-40.73,-41.03,0,*50
1499968849.54,14946,21.06,73874.3,-2.11,-40.79,-41.03,0,*50
1499968850.79,14947,21.06,73874.0,-2.09,-40.41,-40.79,0,*5F
1499968852.02,14948,21.06,73874.5,-2.09,-40.59,-40.91,0,*5F
1499968853.28,14949,21.06,73870.8,-2.11,-40.79,-41.03,0,*5F
1499968854.54,14950,21.06,73874.5,-2.11,-40.79,-41.03,0,*57
1499968855.77,14951,21.06,73872.0,-2.09,-40.91,-41.23,0,*5B
1499968857.03,14952,21.13,73876.3,-2.11,-40.79,-41.03,0,*55
1499968858.29,14953,21.06,73872.0,-2.11,-40.73,-40.97,0,*52
1499968859.55,14954,21.06,73874.5,-2.11,-40.73,-40.97,0,*55
1499968860.81,14955,21.06,73874.0,-2.11,-40.41,-40.73,0,*5F
1499968862.09,14956,21.06,73874.5,-2.11,-40.79,-40.97,0,*5D
1499968863.35,14957,21.06,73878.0,-2.11,-40.73,-40.97,0,*56
1499968864.61,14958,21.06,73872.8,-2.11,-40.73,-40.97,0,*59
1499968865.85,14959,21.06,73872.3,-2.11,-40.73,-40.91,0,*5E
1499968867.1,14960,21.06,73874.8,-2.09,-40.59,-40.79,0,*53
1499968868.36,14961,21.06,73876.3,-2.11,-40.73,-40.97,0,*53
1499968869.61,14962,21.06,73874.0,-2.11,-40.53,-40.79,0,*52
1499968870.87,14963,21.06,73876.3,-2.11,-40.59,-40.91,0,*5F
1499968872.13,14964,21.06,73872.8,-2.11,-40.59,-40.91,0,*58
1499968873.41,14965,21.06,73878.5,-2.11,-40.59,-40.97,0,*5F
1499968874.63,14966,21.06,73872.0,-2.09,-40.53,-40.79,0,*5F
1499968875.89,14967,21.06,73878.0,-2.09,-40.41,-40.79,0,*5D
1499968877.15,14968,21.06,73872.8,-2.11,-40.59,-40.91,0,*54
1499968878.38,14969,21.06,73874.0,-2.11,-40.35,-40.73,0,*53
1499968879.66,14970,21.06,73872.0,-2.11,-40.59,-40.97,0,*5B
1499968880.92,14971,21.06,73874.8,-2.09,-40.79,-40.97,0,*51
1499968882.18,14972,21.06,73878.5,-2.11,-40.73,-40.97,0,*51
1499968883.44,14973,21.06,73878.3,-2.11,-40.41,-40.73,0,*5B
1499968884.67,14974,21.06,73878.5,-2.11,-40.35,-40.73,0,*5F
1499968885.92,14975,21.06,73878.8,-2.11,-40.53,-40.79,0,*54
1499968887.21,14976,21.06,73882.3,-2.11,-39.79,-39.97,0,*5F
1499968888.46,14977,21.06,73878.8,-2.11,-39.35,-39.71,0,*5E
1499968889.67,14978,21.06,73876.3,-2.09,-39.85,-40.15,0,*5F
1499968890.9,14979,21.06,73876.8,-2.09,-40.41,-40.73,0,*58
1499968892.11,14980,21.06,73870.3,-2.09,-40.53,-40.91,0,*51
1499968893.31,14981,21.06,73874.8,-2.09,-40.53,-40.91,0,*50
1499968894.54,14982,21.06,73874.3,-2.09,-40.59,-40.91,0,*59
1499968895.79,14983,21.06,73876.8,-2.09,-40.59,-40.79,0,*5E
1499968897.01,14984,21.06,73876.3,-2.09,-40.53,-40.79,0,*53
1499968898.24,14985,21.06,73876.3,-2.11,-40.53,-40.91,0,*5D
1499968899.49,14986,21.06,73872.3,-2.09,-40.59,-40.79,0,*5B
1499968900.69,14987,21.06,73870.3,-2.09,-40.53,-40.73,0,*5A
1499968901.93,14988,21.06,73868.0,-2.09,-40.59,-40.91,0,*53
1499968903.19,14989,21.06,73872.8,-2.11,-40.73,-40.97,0,*55
1499968904.42,14990,21.06,73872.8,-2.09,-40.59,-40.91,0,*5A
1499968905.62,14991,21.06,73870.5,-2.09,-40.53,-40.91,0,*51
1499968906.86,14992,21.06,73872.8,-2.11,-40.73,-40.91,0,*59
1499968908.05,14993,21.06,73872.8,-2.09,-40.53,-40.73,0,*5F
1499968909.29,14994,21.06,73876.0,-2.09,-40.59,-40.91,0,*5E
1499968910.52,14995,21.06,73878.0,-2.09,-40.53,-40.97,0,*53
1499968911.78,14996,21.06,73876.5,-2.11,-40.59,-40.91,0,*55
1499968913.0,14997,21.06,73878.5,-2.09,-40.53,-40.79,0,*51
1499968914.27,14998,21.06,73878.5,-2.11,-40.59,-40.79,0,*5D
1499968915.51,14999,21.06,73876.0,-2.11,-40.73,-40.91,0,*52
1499968916.75,15000,21.06,73876.3,-2.11,-40.53,-40.79,0,*5E
1499968918.03,15001,21.06,73880.0,-2.11,-40.59,-40.79,0,*55
1499968919.31,15002,21.06,73882.5,-2.11,-40.59,-40.79,0,*56
1499968920.55,15003,21.06,73878.5,-2.11,-40.53,-40.79,0,*5D
1499968921.77,15004,21.06,73878.3,-2.09,-40.53,-40.79,0,*53
1499968923.05,15005,21.06,73882.0,-2.11,-40.59,-40.79,0,*51
1499968924.3,15006,21.06,73878.0,-2.11,-40.53,-40.79,0,*58
1499968925.56,15007,21.06,73882.8,-2.11,-40.59,-40.91,0,*55
1499968926.84,15008,21.06,73876.5,-2.11,-40.79,-40.97,0,*5E
1499968928.1,15009,21.06,73880.5,-2.11,-40.73,-40.97,0,*55
1499968929.38,15010,21.06,73882.3,-2.11,-40.79,-40.97,0,*57
1499968930.64,15011,21.06,73880.0,-2.09,-40.59,-40.97,0,*5D
1499968931.89,15012,21.06,73882.5,-2.11,-40.53,-40.79,0,*5D
1499968933.18,15013,21.06,73882.3,-2.11,-40.59,-40.97,0,*56
1499968934.41,15014,21.06,73882.0,-2.11,-40.73,-40.91,0,*5F
1499968935.66,15015,21.06,73882.0,-2.11,-40.53,-40.79,0,*5A
1499968936.94,15016,21.06,73882.8,-2.11,-40.41,-40.79,0,*5A
1499968938.19,15017,21.06,73882.5,-2.11,-40.21,-40.53,0,*55
1499968939.43,15018,21.06,73882.8,-2.11,-40.15,-40.53,0,*5D
1499968940.68,15019,21.06,73880.0,-2.11,-40.21,-40.73,0,*59
1499968941.95,15020,21.06,73878.8,-2.11,-40.15,-40.41,0,*55
1499968943.22,15021,21.06,73880.8,-2.11,-40.15,-40.59,0,*5D
1499968944.48,15022,21.06,73880.0,-2.11,-40.41,-40.73,0,*57
1499968945.73,15023,21.06,73880.5,-2.09,-39.97,-40.41,0,*5B
1499968946.98,15024,21.06,73882.3,-2.11,-40.15,-40.53,0,*52
1499968948.21,15025,21.06,73876.0,-2.09,-40.41,-40.73,0,*59
1499968949.48,15026,21.06,73880.0,-2.11,-40.15,-40.41,0,*53
1499968950.72,15027,21.06,73882.3,-2.11,-40.15,-40.53,0,*51
1499968951.97,15028,21.06,73882.3,-2.11,-40.21,-40.73,0,*5B
1499968953.2,15029,21.06,73882.3,-2.09,-40.41,-40.73,0,*55
1499968954.48,15030,21.06,73880.8,-2.11,-40.41,-40.79,0,*5E
1499968955.77,15031,21.06,73884.0,-2.11,-40.41,-40.79,0,*5F
1499968957.03,15032,21.06,73880.3,-2.11,-40.41,-40.91,0,*5A
1499968958.26,15033,21.06,73880.5,-2.11,-40.35,-40.73,0,*54
1499968959.49,15034,21.06,73880.5,-2.11,-40.35,-40.73,0,*53
1499968960.69,15035,21.06,73882.8,-2.09,-40.53,-40.91,0,*57
1499968961.97,15036,21.06,73882.5,-2.11,-40.21,-40.59,0,*5C
1499968963.25,15037,21.06,73886.3,-2.11,-40.41,-40.79,0,*59
1499968964.53,15038,21.06,73884.8,-2.13,-40.29,-40.59,0,*58
1499968965.78,15039,21.06,73880.8,-2.13,-40.47,-40.79,0,*53
1499968967.01,15040,21.06,73880.5,-2.13,-40.47,-40.65,0,*50
1499968968.21,15041,21.06,73880.8,-2.09,-40.35,-40.73,0,*58
1499968969.47,15042,21.06,73880.0,-2.11,-40.41,-40.73,0,*51
1499968970.73,15043,21.06,73878.0,-2.11,-40.41,-40.73,0,*50
1499968972.01,15044,21.06,73880.8,-2.11,-40.41,-40.79,0,*5D
1499968973.29,15045,21.06,73882.5,-2.11,-40.41,-40.79,0,*5C
1499968974.55,15046,21.06,73882.5,-2.11,-40.41,-40.73,0,*55
1499968975.8,15047,21.06,73880.5,-2.11,-40.53,-40.79,0,*5D
1499968977.06,15048,21.06,73880.5,-2.11,-40.59,-40.91,0,*5E
1499968978.32,15049,21.06,73882.8,-2.13,-40.47,-40.85,0,*57
1499968979.55,15050,21.06,73886.3,-2.11,-40.35,-40.73,0,*51
1499968980.81,15051,21.06,73882.5,-2.11,-40.41,-40.73,0,*53
1499968982.05,15052,21.06,73884.5,-2.11,-40.53,-40.79,0,*59
1499968983.33,15053,21.06,73880.0,-2.13,-40.41,-40.79,0,*59
1499968984.6,15054,21.06,73884.3,-2.13,-40.29,-40.79,0,*50
1499968985.83,15055,21.06,73884.0,-2.11,-40.35,-40.73,0,*54
1499968987.09,15056,21.06,73884.0,-2.11,-40.35,-40.59,0,*5F
1499968988.35,15057,21.06,73880.0,-2.13,-40.47,-40.85,0,*58
1499968989.63,15058,21.06,73884.3,-2.13,-40.41,-40.79,0,*52
1499968990.86,15059,21.06,73882.5,-2.11,-40.03,-40.53,0,*5F
1499968992.11,15060,21.06,73886.3,-2.13,-40.47,-40.79,0,*5F
1499968993.36,15061,21.06,73886.0,-2.13,-40.21,-40.65,0,*53
1499968994.56,15062,21.06,73886.8,-2.09,-40.03,-40.35,0,*5E
1499968995.82,15063,21.06,73884.3,-2.13,-40.03,-40.41,0,*57
1499968997.02,15064,21.06,73884.0,-2.09,-40.35,-40.73,0,*5F
1499968998.28,15065,21.06,73884.8,-2.11,-40.35,-40.59,0,*5F
1499968999.48,15066,21.06,73884.5,-2.09,-40.35,-40.73,0,*5D
1499969000.74,15067,21.06,73880.8,-2.11,-40.41,-40.73,0,*56
1499969002.0,15068,21.06,73882.3,-2.11,-40.35,-40.59,0,*52
1499969003.24,15069,21.06,73882.3,-2.11,-40.53,-40.79,0,*51
1499969004.5,15070,21.06,73880.0,-2.11,-40.41,-40.73,0,*50
1499969005.76,15071,21.06,73882.8,-2.11,-40.41,-40.73,0,*51
1499969007.02,15072,21.06,73876.5,-2.13,-40.41,-40.65,0,*57
1499969008.27,15073,21.06,73878.8,-2.13,-40.47,-40.79,0,*5D
1499969009.5,15074,21.06,73878.3,-2.09,-40.41,-40.73,0,*5D
1499969010.73,15075,21.06,73878.8,-2.09,-40.21,-40.73,0,*5A
1499969011.95,15076,21.06,73880.8,-2.11,-40.35,-40.73,0,*55
1499969013.21,15077,21.06,73880.0,-2.11,-40.41,-40.73,0,*57
1499969014.47,15078,21.06,73878.0,-2.11,-40.53,-40.59,0,*53
1499969015.72,15079,21.06,73876.8,-2.11,-40.35,-40.59,0,*52
1499969016.95,15080,21.06,73874.8,-2.11,-40.35,-40.73,0,*5C
1499969018.24,15081,21.06,73874.8,-2.13,-40.41,-40.85,0,*55
1499969019.53,15082,21.06,73876.5,-2.13,-40.41,-40.85,0,*56
1499969020.79,15083,21.06,73876.3,-2.13,-40.41,-40.65,0,*59
1499969022.07,15084,21.06,73876.5,-2.13,-40.41,-40.79,0,*53
1499969023.31,15085,21.06,73878.8,-2.13,-40.21,-40.65,0,*59
1499969024.56,15086,21.06,73876.0,-2.13,-40.29,-40.65,0,*52
1499969025.82,15087,21.06,73874.5,-2.13,-40.09,-40.47,0,*51
1499969027.05,15088,21.06,73876.5,-2.15,-40.09,-40.47,0,*58
1499969028.34,15089,21.06,73878.0,-2.13,-40.09,-40.59,0,*50
1499969029.6,15090,21.06,73880.0,-2.13,-40.09,-40.47,0,*57
1499969030.85,15091,21.06,73874.8,-2.13,-40.21,-40.65,0,*5C
1499969032.12,15092,21.06,73878.3,-2.13,-40.29,-40.59,0,*58
1499969033.37,15093,21.06,73876.8,-2.13,-40.21,-40.65,0,*5E
1499969034.62,15094,21.06,73878.3,-2.13,-40.29,-40.65,0,*51
1499969035.84,15095,21.06,73880.3,-2.15,-40.15,-40.65,0,*59
1499969037.1,15096,21.06,73880.0,-2.13,-39.91,-40.41,0,*58
1499969038.36,15097,21.06,73880.3,-2.13,-39.91,-40.21,0,*5F
1499969039.6,15098,21.06,73878.8,-2.15,-40.09,-40.47,0,*59
1499969040.86,15099,21.06,73880.5,-2.13,-39.91,-40.29,0,*59
1499969042.1,15100,21.06,73878.0,-2.15,-40.09,-40.47,0,*59
1499969043.33,15101,21.06,73882.0,-2.15,-40.03,-40.41,0,*54
1499969044.59,15102,21.06,73880.3,-2.13,-39.85,-40.29,0,*5F
1499969045.85,15103,21.06,73880.8,-2.13,-39.91,-40.29,0,*5B
1499969047.08,15104,21.06,73878.5,-2.15,-39.97,-40.47,0,*54
1499969048.31,15105,21.06,73882.8,-2.13,-39.91,-40.47,0,*55
1499969049.52,15106,21.06,73882.5,-2.15,-40.35,-40.65,0,*50
1499969050.75,15107,21.06,73880.5,-2.11,-40.03,-40.53,0,*55
1499969051.99,15108,21.06,73882.5,-2.15,-40.09,-40.65,0,*51
1499969053.22,15109,21.06,73880.3,-2.13,-40.03,-40.47,0,*5C
1499969054.49,15110,21.06,73880.5,-2.13,-40.21,-40.79,0,*59
1499969055.75,15111,21.06,73884.0,-2.13,-40.47,-40.85,0,*5B
1499969056.99,15112,21.06,73884.0,-2.13,-40.21,-40.65,0,*56
1499969058.24,15113,21.06,73882.0,-2.13,-40.21,-40.65,0,*57
1499969059.48,15114,21.06,73882.5,-2.15,-40.35,-40.85,0,*5D
1499969060.74,15115,21.06,73880.0,-2.15,-40.29,-40.85,0,*51
1499969061.97,15116,21.06,73882.3,-2.15,-40.47,-40.85,0,*5A
1499969063.25,15117,21.06,73882.3,-2.13,-40.41,-40.79,0,*58
1499969064.48,15118,21.06,73882.3,-2.15,-40.29,-40.65,0,*52
1499969065.7,15119,21.06,73884.8,-2.15,-40.15,-40.65,0,*5C
1499969066.94,15120,21.06,73886.8,-2.15,-40.47,-40.85,0,*5F
1499969068.17,15121,21.06,73884.5,-2.15,-40.29,-40.73,0,*5F
1499969069.4,15122,21.06,73882.5,-2.15,-40.29,-40.73,0,*5C
1499969070.61,15123,21.06,73880.0,-2.15,-40.35,-40.73,0,*50
1499969071.83,15124,21.06,73880.0,-2.15,-40.29,-40.73,0,*5A
1499969073.08,15125,21.06,73886.5,-2.15,-40.09,-40.53,0,*5B
1499969074.34,15126,21.06,73880.8,-2.17,-40.09,-40.53,0,*5A
1499969075.59,15127,21.06,73884.3,-2.17,-39.97,-40.35,0,*52
1499969076.83,15128,21.06,73882.5,-2.17,-39.97,-40.47,0,*58
1499969078.05,15129,21.06,73884.5,-2.15,-40.15,-40.47,0,*5F
1499969079.27,15130,21.0,73876.8,-2.15,-40.15,-40.47,0,*57
1499969080.48,15131,21.06,73882.0,-2.15,-40.15,-40.65,0,*56
1499969081.72,15132,21.06,73882.8,-2.15,-40.35,-40.85,0,*59
1499969082.96,15133,21.06,73882.8,-2.15,-40.09,-40.47,0,*59
1499969084.18,15134,21.06,73880.8,-2.13,-40.03,-40.47,0,*52
1499969085.41,15135,21.0,73880.0,-2.15,-39.97,-40.47,0,*56
1499969086.63,15136,21.06,73880.8,-2.15,-39.91,-40.35,0,*56
1499969087.84,15137,21.06,73880.0,-2.15,-39.85,-40.15,0,*50
1499969089.07,15138,21.06,73882.5,-2.13,-39.85,-40.35,0,*5B
1499969090.3,15139,21.06,73884.5,-2.15,-39.97,-40.47,0,*5A
1499969091.54,15140,21.06,73884.3,-2.15,-40.09,-40.53,0,*58
1499969092.78,15141,21.06,73886.8,-2.15,-39.85,-40.29,0,*5E
1499969094.02,15142,21.06,73884.5,-2.15,-39.91,-40.29,0,*58
1499969095.25,15143,21.0,73882.3,-2.15,-39.97,-40.47,0,*57
1499969096.48,15144,21.06,73884.5,-2.15,-39.97,-40.35,0,*55
1499969097.71,15145,21.06,73884.3,-2.15,-39.97,-40.47,0,*51
1499969098.95,15146,21.0,73884.3,-2.15,-39.71,-40.15,0,*5D
1499969100.18,15147,21.06,73882.8,-2.15,-39.97,-40.47,0,*53
1499969101.44,15148,21.06,73886.5,-2.13,-39.79,-40.03,0,*5A
1499969102.65,15149,21.0,73886.3,-2.15,-39.85,-40.15,0,*59
1499969103.89,15150,21.0,73886.5,-2.15,-39.85,-40.21,0,*56
1499969105.11,15151,21.0,73882.3,-2.15,-39.85,-40.15,0,*50
1499969106.34,15152,21.0,73882.5,-2.15,-39.91,-40.29,0,*59
1499969107.58,15153,21.06,73886.0,-2.15,-40.09,-40.47,0,*5F
1499969108.84,15154,21.0,73882.5,-2.13,-39.85,-40.09,0,*5E
1499969110.07,15155,21.0,73884.5,-2.13,-40.03,-40.47,0,*55
1499969111.3,15156,21.06,73886.0,-2.15,-40.09,-40.47,0,*5A
1499969112.56,15157,21.0,73882.5,-2.13,-40.03,-40.41,0,*51
1499969113.84,15158,21.0,73884.0,-2.13,-40.21,-40.59,0,*57
1499969115.08,15159,21.0,73886.0,-2.15,-40.09,-40.35,0,*50
1499969116.31,15160,21.06,73884.5,-2.15,-40.03,-40.41,0,*53
1499969117.54,15161,21.0,73884.5,-2.15,-40.29,-40.73,0,*5B
1499969118.8,15162,21.0,73882.8,-2.13,-39.85,-40.21,0,*51
1499969120.06,15163,21.06,73886.5,-2.13,-39.59,-39.91,0,*54
1499969121.3,15164,21.0,73882.0,-2.15,-39.85,-40.29,0,*59
1499969122.56,15165,21.0,73882.5,-2.13,-40.03,-40.41,0,*50
1499969123.8,15166,21.0,73880.8,-2.15,-40.09,-40.53,0,*5C
1499969125.04,15167,21.0,73880.3,-2.15,-39.91,-40.29,0,*5F
1499969126.27,15168,21.0,73882.8,-2.13,-40.03,-40.47,0,*5B
1499969127.5,15169,21.0,73882.0,-2.15,-39.97,-40.35,0,*5A
1499969128.73,15170,21.0,73884.3,-2.15,-39.91,-40.29,0,*59
1499969129.97,15171,21.0,73882.0,-2.15,-40.09,-40.35,0,*5A
1499969131.21,15172,21.0,73882.0,-2.15,-39.91,-40.29,0,*5B
1499969132.44,15173,21.0,73884.8,-2.15,-39.97,-40.35,0,*51
1499969133.67,15174,21.0,73886.8,-2.17,-39.85,-40.15,0,*55
1499969134.93,15175,21.0,73886.0,-2.17,-40.09,-40.47,0,*59
1499969136.19,15176,21.0,73888.5,-2.13,-39.79,-40.15,0,*50
1499969137.41,15177,21.0,73888.0,-2.15,-39.91,-40.15,0,*51
1499969138.64,15178,21.0,73886.0,-2.15,-39.97,-40.53,0,*5A
1499969139.88,15179,21.0,73880.5,-2.15,-40.09,-40.53,0,*52
1499969141.12,15180,21.0,73886.0,-2.15,-39.91,-40.29,0,*56
1499969142.35,15181,21.0,73880.5,-2.15,-39.97,-40.35,0,*5C
1499969143.58,15182,21.0,73884.5,-2.13,-40.03,-40.47,0,*5F
1499969144.79,15183,21.0,73880.3,-2.15,-40.15,-40.47,0,*5F
1499969146.02,15184,21.0,73886.8,-2.13,-40.03,-40.47,0,*59
1499969147.24,15185,21.0,73884.0,-2.15,-40.15,-40.65,0,*59
1499969148.47,15186,21.0,73880.3,-2.15,-40.29,-40.73,0,*52
1499969149.75,15187,21.0,73886.8,-2.13,-40.21,-40.59,0,*55
1499969150.97,15188,21.0,73882.0,-2.15,-40.29,-40.65,0,*5B
1499969152.2,15189,21.0,73884.0,-2.15,-40.29,-40.65,0,*5A
1499969153.43,15190,21.0,73888.3,-2.15,-40.29,-40.65,0,*52
1499969154.66,15191,21.0,73886.8,-2.15,-40.53,-40.85,0,*50
1499969155.9,15192,21.0,73882.3,-2.15,-40.47,-40.85,0,*56
1499969157.14,15193,21.0,73882.0,-2.15,-40.35,-40.85,0,*52
1499969158.34,15194,21.0,73880.8,-2.15,-40.35,-40.73,0,*5C
1499969159.59,15195,21.0,73878.5,-2.17,-40.29,-40.65,0,*55
1499969160.83,15196,21.0,73880.3,-2.19,-40.41,-40.73,0,*51
1499969162.05,15197,21.0,73880.8,-2.19,-40.29,-40.65,0,*59
1499969163.29,15198,21.0,73880.8,-2.19,-40.15,-40.41,0,*5F
1499969164.54,15199,21.0,73880.3,-2.19,-39.41,-39.15,0,*5E
1499969165.81,15200,21.0,73882.5,-2.17,-38.67,-39.53,0,*54
1499969167.02,15201,21.0,73880.3,-2.19,-39.91,-40.03,0,*58
1499969168.25,15202,21.0,73882.8,-2.19,-40.03,-40.59,0,*51
1499969169.5,15203,21.0,73880.5,-2.17,-40.29,-40.65,0,*59
1499969170.75,15204,21.0,73876.8,-2.17,-40.53,-40.85,0,*5D
1499969172.0,15205,21.0,73876.5,-2.17,-40.29,-40.73,0,*58
1499969173.22,15206,21.0,73878.3,-2.17,-40.53,-40.73,0,*56
1499969174.46,15207,21.0,73882.8,-2.19,-40.41,-40.91,0,*56
1499969175.69,15208,21.0,73882.8,-2.19,-40.41,-40.73,0,*55
1499969176.92,15209,21.0,73882.0,-2.19,-40.59,-40.91,0,*51
1499969178.14,15210,21.0,73882.5,-2.19,-40.53,-40.79,0,*55
1499969179.34,15211,21.0,73884.3,-2.19,-40.53,-40.91,0,*52
1499969180.54,15212,21.0,73882.5,-2.19,-40.53,-40.91,0,*51
1499969181.78,15213,21.0,73880.3,-2.19,-40.41,-40.73,0,*5F
1499969183.01,15214,21.0,73880.5,-2.19,-40.59,-40.91,0,*5D
1499969184.21,15215,21.0,73884.5,-2.19,-40.53,-40.91,0,*56
1499969185.47,15216,21.0,73882.3,-2.17,-40.35,-40.85,0,*5E
1499969186.7,15217,21.0,73882.5,-2.19,-40.59,-40.91,0,*5E
1499969187.93,15218,21.0,73882.3,-2.21,-40.53,-40.91,0,*50
1499969189.17,15219,21.0,73882.8,-2.21,-40.53,-40.91,0,*51
1499969190.43,15220,21.0,73882.3,-2.23,-40.59,-40.85,0,*56
1499969191.72,15221,21.0,73884.3,-2.21,-40.59,-40.97,0,*56
1499969193.0,15222,21.0,73878.5,-2.21,-40.59,-40.79,0,*55
1499969194.28,15223,21.0,73880.0,-2.21,-40.41,-40.79,0,*5D
1499969195.51,15224,21.0,73882.8,-2.21,-40.35,-40.73,0,*53
1499969196.72,15225,21.0,73880.3,-2.23,-40.53,-40.91,0,*5C
1499969197.97,15226,21.0,73876.5,-2.21,-40.21,-40.53,0,*56
1499969199.18,15227,21.0,73878.0,-2.23,-40.03,-40.47,0,*50
1499969200.42,15228,21.0,73878.8,-2.21,-40.15,-40.35,0,*5F
1499969201.7,15229,21.0,73878.3,-2.21,-40.21,-40.59,0,*53
1499969202.97,15230,21.0,73882.5,-2.21,-40.41,-40.91,0,*59
1499969204.2,15231,21.0,73880.3,-2.23,-40.65,-40.85,0,*59
1499969205.46,15232,21.0,73880.0,-2.23,-40.41,-40.79,0,*5F
1499969206.7,15233,21.0,73882.0,-2.23,-40.41,-40.65,0,*53
1499969207.98,15234,21.0,73880.3,-2.21,-40.41,-40.79,0,*5B
1499969209.24,15235,21.0,73880.8,-2.23,-40.41,-40.79,0,*58
1499969210.5,15236,21.0,73882.5,-2.23,-40.29,-40.59,0,*57
1499969211.76,15237,21.0,73878.3,-2.21,-40.41,-40.73,0,*52
1499969212.99,15238,21.0,73878.8,-2.21,-40.35,-40.73,0,*5E
1499969214.22,15239,21.0,73882.8,-2.23,-40.29,-40.65,0,*57
1499969215.45,15240,21.0,73880.3,-2.23,-40.21,-40.47,0,*51
1499969216.68,15241,21.0,73880.8,-2.23,-40.29,-40.65,0,*58
1499969217.93,15242,21.0,73886.3,-2.23,-40.21,-40.59,0,*5C
1499969219.21,15243,21.0,73882.3,-2.21,-40.21,-40.79,0,*5D
1499969220.47,15244,21.0,73882.8,-2.23,-40.41,-40.79,0,*5E
1499969221.7,15245,21.0,73886.3,-2.23,-40.47,-40.85,0,*5A
1499969222.97,15246,21.0,73886.8,-2.23,-40.09,-40.59,0,*52
1499969224.2,15247,21.0,73886.8,-2.23,-40.29,-40.65,0,*5E
1499969225.43,15248,21.0,73884.5,-2.23,-40.21,-40.47,0,*59
1499969226.69,15249,21.0,73880.3,-2.23,-40.09,-40.41,0,*54
1499969227.93,15250,21.0,73878.3,-2.23,-40.03,-40.41,0,*56
1499969229.2,15251,21.0,73880.3,-2.23,-40.09,-40.41,0,*5D
1499969230.44,15252,21.0,73884.3,-2.23,-40.03,-40.41,0,*54
1499969231.69,15253,21.0,73884.8,-2.23,-40.21,-40.59,0,*5C
1499969232.92,15254,20.94,73880.8,-2.23,-40.21,-40.47,0,*54
1499969234.18,15255,21.0,73884.3,-2.23,-40.41,-40.79,0,*5E
1499969235.41,15256,21.0,73884.0,-2.23,-40.21,-40.65,0,*56
1499969236.65,15257,21.0,73880.3,-2.23,-40.03,-40.41,0,*51
1499969237.9,15258,21.0,73882.3,-2.23,-40.29,-40.79,0,*5D
1499969239.15,15259,20.94,73882.5,-2.23,-40.21,-40.59,0,*56
1499969240.39,15260,20.94,73878.5,-2.23,-40.03,-40.29,0,*5B
1499969241.66,15261,21.0,73882.0,-2.23,-40.09,-40.59,0,*57
1499969242.89,15262,20.94,73878.0,-2.23,-40.03,-40.29,0,*59
1499969244.13,15263,21.0,73882.5,-2.23,-39.85,-40.09,0,*5A
1499969245.36,15264,20.94,73880.0,-2.23,-39.97,-39.65,0,*5A
1499969246.6,15265,21.0,73882.0,-2.23,-39.41,-39.65,0,*50
1499969247.83,15266,20.94,73878.3,-2.23,-39.29,-40.03,0,*53
1499969249.07,15267,21.0,73880.3,-2.23,-39.47,-39.97,0,*59
1499969250.31,15268,20.94,73878.5,-2.23,-39.65,-39.79,0,*56
1499969251.6,15269,20.94,73882.3,-2.21,-39.71,-39.97,0,*50
1499969252.84,15270,20.94,73878.5,-2.23,-38.79,-35.29,0,*5A
1499969254.1,15271,20.94,73876.0,-2.23,-34.01,-34.53,0,*54
1499969255.33,15272,20.94,73876.3,-2.23,-35.47,-39.29,0,*54
1499969256.59,15273,20.94,73882.0,-2.21,-38.43,-39.97,0,*5B
1499969257.87,15274,20.94,73880.5,-2.21,-39.53,-40.21,0,*5F
1499969259.15,15275,20.94,73880.3,-2.21,-39.53,-39.97,0,*5D
1499969260.39,15276,20.94,73880.5,-2.21,-39.91,-40.15,0,*54
1499969261.68,15277,20.94,73878.8,-2.21,-39.59,-39.97,0,*55
1499969262.94,15278,20.94,73870.5,-2.21,-39.71,-40.03,0,*53
1499969264.21,15279,20.94,73864.5,-2.21,-39.79,-40.15,0,*5D
1499969265.45,15280,20.94,73868.3,-2.21,-39.91,-40.15,0,*5D
1499969266.7,15281,20.94,73866.5,-2.19,-39.97,-40.41,0,*50
1499969267.93,15282,20.94,73862.5,-2.19,-40.03,-40.41,0,*50
1499969269.16,15283,20.94,73864.5,-2.19,-39.97,-40.15,0,*53
1499969270.4,15284,20.94,73864.8,-2.19,-39.59,-40.15,0,*56
1499969271.63,15285,20.94,73864.3,-2.19,-39.79,-40.03,0,*52
1499969272.84,15286,20.94,73870.5,-2.19,-39.91,-40.35,0,*52
1499969274.09,15287,21.0,73874.0,-2.17,-39.97,-40.47,0,*5E
1499969275.35,15288,20.94,73870.5,-2.17,-39.85,-40.29,0,*5A
1499969276.6,15289,20.94,73874.8,-2.17,-39.97,-40.47,0,*50
1499969277.85,15290,20.94,73880.0,-2.19,-39.97,-40.21,0,*56
1499969279.1,15291,20.94,73868.8,-2.17,-39.97,-40.35,0,*5C
1499969280.35,15292,20.94,73868.8,-2.17,-40.29,-40.53,0,*54
1499969281.59,15293,20.94,73876.5,-2.17,-40.15,-40.53,0,*5A
1499969282.84,15294,20.94,73878.5,-2.17,-40.29,-40.65,0,*57
1499969284.09,15295,20.94,73872.3,-2.17,-40.09,-40.47,0,*54
1499969285.32,15296,20.94,73870.3,-2.19,-40.03,-40.41,0,*55
1499969286.59,15297,20.94,73874.3,-2.19,-40.41,-40.59,0,*5B
1499969287.81,15298,20.94,73876.0,-2.19,-40.35,-40.79,0,*55
1499969289.03,15299,20.94,73872.8,-2.19,-40.35,-40.79,0,*54
1499969290.23,15300,20.94,73878.5,-2.19,-40.35,-40.73,0,*5F
1499969291.47,15301,20.94,73870.3,-2.19,-40.15,-40.59,0,*54
1499969292.73,15302,20.94,73868.8,-2.21,-40.21,-40.73,0,*53
1499969293.97,15303,20.94,73864.3,-2.19,-40.21,-40.59,0,*51
1499969295.21,15304,20.94,73870.0,-2.19,-40.35,-40.59,0,*53
1499969296.44,15305,20.94,73876.0,-2.19,-40.41,-40.91,0,*55
1499969297.68,15306,20.94,73872.5,-2.19,-40.41,-40.91,0,*56
1499969298.93,15307,20.94,73870.8,-2.19,-40.21,-40.59,0,*55